Year,Month,Day,Hour,Minute,Value (Times are PST for temperature in C)
2010,08,15,00,00,20.00
2010,08,15,00,01,20.00
2010,08,15,00,02,19.90
2010,08,15,00,03,19.90
2010,08,15,00,04,19.90
2010,08,15,00,05,19.80
2010,08,15,00,06,19.80
2010,08,15,00,07,19.80
2010,08,15,00,08,19.80
2010,08,15,00,09,19.80
2010,08,15,00,10,19.70
2010,08,15,00,11,19.70
2010,08,15,00,12,19.70
2010,08,15,00,13,19.60
2010,08,15,00,14,19.60
2010,08,15,00,15,19.60
2010,08,15,00,16,19.50
2010,08,15,00,17,19.50
2010,08,15,00,18,19.40
2010,08,15,00,19,19.40
2010,08,15,00,20,19.40
2010,08,15,00,21,19.30
2010,08,15,00,22,19.30
2010,08,15,00,23,19.30
2010,08,15,00,24,19.30
2010,08,15,00,25,19.20
2010,08,15,00,26,19.20
2010,08,15,00,27,19.20
2010,08,15,00,28,19.20
2010,08,15,00,29,19.10
2010,08,15,00,30,19.10
2010,08,15,00,31,19.10
2010,08,15,00,32,19.00
2010,08,15,00,33,19.00
2010,08,15,00,34,19.00
2010,08,15,00,35,18.90
2010,08,15,00,36,18.90
2010,08,15,00,37,18.80
2010,08,15,00,38,18.80
2010,08,15,00,39,18.70
2010,08,15,00,40,18.70
2010,08,15,00,41,18.70
2010,08,15,00,42,18.60
2010,08,15,00,43,18.60
2010,08,15,00,44,18.50
2010,08,15,00,45,18.50
2010,08,15,00,46,18.50
2010,08,15,00,47,18.40
2010,08,15,00,48,18.40
2010,08,15,00,49,18.40
2010,08,15,00,50,18.30
2010,08,15,00,51,18.30
2010,08,15,00,52,18.30
2010,08,15,00,53,18.20
2010,08,15,00,54,18.20
2010,08,15,00,55,18.20
2010,08,15,00,56,18.10
2010,08,15,00,57,18.10
2010,08,15,00,58,18.10
2010,08,15,00,59,18.10
2010,08,15,01,00,18.00
2010,08,15,01,01,18.00
2010,08,15,01,02,17.90
2010,08,15,01,03,17.90
2010,08,15,01,04,17.90
2010,08,15,01,05,17.90
2010,08,15,01,06,17.80
2010,08,15,01,07,17.80
2010,08,15,01,08,17.80
2010,08,15,01,09,17.80
2010,08,15,01,10,17.80
2010,08,15,01,11,17.70
2010,08,15,01,12,17.70
2010,08,15,01,13,17.70
2010,08,15,01,14,17.70
2010,08,15,01,15,17.70
2010,08,15,01,16,17.70
2010,08,15,01,17,17.60
2010,08,15,01,18,17.60
2010,08,15,01,19,17.60
2010,08,15,01,20,17.60
2010,08,15,01,21,17.60
2010,08,15,01,22,17.50
2010,08,15,01,23,17.50
2010,08,15,01,24,17.50
2010,08,15,01,25,17.50
2010,08,15,01,26,17.50
2010,08,15,01,27,17.40
2010,08,15,01,28,17.40
2010,08,15,01,29,17.40
2010,08,15,01,30,17.40
2010,08,15,01,31,17.40
2010,08,15,01,32,17.40
2010,08,15,01,33,17.40
2010,08,15,01,34,17.30
2010,08,15,01,35,17.30
2010,08,15,01,36,17.30
2010,08,15,01,37,17.30
2010,08,15,01,38,17.30
2010,08,15,01,39,17.30
2010,08,15,01,40,17.30
2010,08,15,01,41,17.30
2010,08,15,01,42,17.30
2010,08,15,01,43,17.20
2010,08,15,01,44,17.20
2010,08,15,01,45,17.20
2010,08,15,01,46,17.20
2010,08,15,01,47,17.20
2010,08,15,01,48,17.20
2010,08,15,01,49,17.20
2010,08,15,01,50,17.20
2010,08,15,01,51,17.20
2010,08,15,01,52,17.20
2010,08,15,01,53,17.20
2010,08,15,01,54,17.20
2010,08,15,01,55,17.20
2010,08,15,01,56,17.20
2010,08,15,01,57,17.20
2010,08,15,01,58,17.20
2010,08,15,01,59,17.20
2010,08,15,02,00,17.20
2010,08,15,02,01,17.20
2010,08,15,02,02,17.20
2010,08,15,02,03,17.20
2010,08,15,02,04,17.20
2010,08,15,02,05,17.20
2010,08,15,02,06,17.20
2010,08,15,02,07,17.20
2010,08,15,02,08,17.20
2010,08,15,02,09,17.20
2010,08,15,02,10,17.20
2010,08,15,02,11,17.10
2010,08,15,02,12,17.10
2010,08,15,02,13,17.10
2010,08,15,02,14,17.10
2010,08,15,02,15,17.10
2010,08,15,02,16,17.10
2010,08,15,02,17,17.10
2010,08,15,02,18,17.10
2010,08,15,02,19,17.10
2010,08,15,02,20,17.10
2010,08,15,02,21,17.10
2010,08,15,02,22,17.10
2010,08,15,02,23,17.10
2010,08,15,02,24,17.10
2010,08,15,02,25,17.10
2010,08,15,02,26,17.10
2010,08,15,02,27,17.10
2010,08,15,02,28,17.10
2010,08,15,02,29,17.10
2010,08,15,02,30,17.00
2010,08,15,02,31,17.00
2010,08,15,02,32,17.10
2010,08,15,02,33,17.10
2010,08,15,02,34,17.10
2010,08,15,02,35,17.10
2010,08,15,02,36,17.10
2010,08,15,02,37,17.10
2010,08,15,02,38,17.10
2010,08,15,02,39,17.10
2010,08,15,02,40,17.10
2010,08,15,02,41,17.10
2010,08,15,02,42,17.10
2010,08,15,02,43,17.10
2010,08,15,02,44,17.10
2010,08,15,02,45,17.10
2010,08,15,02,46,17.10
2010,08,15,02,47,17.20
2010,08,15,02,48,17.20
2010,08,15,02,49,17.20
2010,08,15,02,50,17.20
2010,08,15,02,51,17.20
2010,08,15,02,52,17.20
2010,08,15,02,53,17.20
2010,08,15,02,54,17.20
2010,08,15,02,55,17.30
2010,08,15,02,56,17.30
2010,08,15,02,57,17.30
2010,08,15,02,58,17.30
2010,08,15,02,59,17.30
2010,08,15,03,00,17.30
2010,08,15,03,01,17.30
2010,08,15,03,02,17.30
2010,08,15,03,03,17.40
2010,08,15,03,04,17.40
2010,08,15,03,05,17.40
2010,08,15,03,06,17.40
2010,08,15,03,07,17.40
2010,08,15,03,08,17.40
2010,08,15,03,09,17.40
2010,08,15,03,10,17.40
2010,08,15,03,11,17.40
2010,08,15,03,12,17.40
2010,08,15,03,13,17.40
2010,08,15,03,14,17.40
2010,08,15,03,15,17.40
2010,08,15,03,16,17.40
2010,08,15,03,17,17.40
2010,08,15,03,18,17.40
2010,08,15,03,19,17.40
2010,08,15,03,20,17.40
2010,08,15,03,21,17.40
2010,08,15,03,22,17.40
2010,08,15,03,23,17.40
2010,08,15,03,24,17.40
2010,08,15,03,25,17.40
2010,08,15,03,26,17.40
2010,08,15,03,27,17.40
2010,08,15,03,28,17.40
2010,08,15,03,29,17.40
2010,08,15,03,30,17.40
2010,08,15,03,31,17.40
2010,08,15,03,32,17.40
2010,08,15,03,33,17.40
2010,08,15,03,34,17.40
2010,08,15,03,35,17.40
2010,08,15,03,36,17.40
2010,08,15,03,37,17.40
2010,08,15,03,38,17.40
2010,08,15,03,39,17.40
2010,08,15,03,40,17.40
2010,08,15,03,41,17.40
2010,08,15,03,42,17.40
2010,08,15,03,43,17.40
2010,08,15,03,44,17.40
2010,08,15,03,45,17.40
2010,08,15,03,46,17.40
2010,08,15,03,47,17.40
2010,08,15,03,48,17.50
2010,08,15,03,49,17.50
2010,08,15,03,50,17.50
2010,08,15,03,51,17.50
2010,08,15,03,52,17.50
2010,08,15,03,53,17.50
2010,08,15,03,54,17.50
2010,08,15,03,55,17.50
2010,08,15,03,56,17.60
2010,08,15,03,57,17.60
2010,08,15,03,58,17.60
2010,08,15,03,59,17.60
2010,08,15,04,00,17.60
2010,08,15,04,01,17.60
2010,08,15,04,02,17.60
2010,08,15,04,03,17.60
2010,08,15,04,04,17.60
2010,08,15,04,05,17.60
2010,08,15,04,06,17.60
2010,08,15,04,07,17.50
2010,08,15,04,08,17.50
2010,08,15,04,09,17.50
2010,08,15,04,10,17.50
2010,08,15,04,11,17.50
2010,08,15,04,12,17.50
2010,08,15,04,13,17.50
2010,08,15,04,14,17.50
2010,08,15,04,15,17.50
2010,08,15,04,16,17.50
2010,08,15,04,17,17.50
2010,08,15,04,18,17.50
2010,08,15,04,19,17.60
2010,08,15,04,20,17.60
2010,08,15,04,21,17.60
2010,08,15,04,22,17.60
2010,08,15,04,23,17.60
2010,08,15,04,24,17.60
2010,08,15,04,25,17.70
2010,08,15,04,26,17.70
2010,08,15,04,27,17.70
2010,08,15,04,28,17.70
2010,08,15,04,29,17.80
2010,08,15,04,30,17.80
2010,08,15,04,31,17.80
2010,08,15,04,32,17.80
2010,08,15,04,33,17.80
2010,08,15,04,34,17.90
2010,08,15,04,35,17.90
2010,08,15,04,36,17.90
2010,08,15,04,37,17.90
2010,08,15,04,38,17.90
2010,08,15,04,39,17.90
2010,08,15,04,40,18.00
2010,08,15,04,41,18.00
2010,08,15,04,42,18.00
2010,08,15,04,43,18.10
2010,08,15,04,44,18.10
2010,08,15,04,45,18.10
2010,08,15,04,46,18.10
2010,08,15,04,47,18.10
2010,08,15,04,48,18.20
2010,08,15,04,49,18.20
2010,08,15,04,50,18.20
2010,08,15,04,51,18.20
2010,08,15,04,52,18.20
2010,08,15,04,53,18.20
2010,08,15,04,54,18.30
2010,08,15,04,55,18.30
2010,08,15,04,56,18.30
2010,08,15,04,57,18.30
2010,08,15,04,58,18.30
2010,08,15,04,59,18.30
2010,08,15,05,00,18.30
2010,08,15,05,01,18.30
2010,08,15,05,02,18.30
2010,08,15,05,03,18.30
2010,08,15,05,04,18.30
2010,08,15,05,05,18.30
2010,08,15,05,06,18.30
2010,08,15,05,07,18.40
2010,08,15,05,08,18.40
2010,08,15,05,09,18.40
2010,08,15,05,10,18.40
2010,08,15,05,11,18.40
2010,08,15,05,12,18.40
2010,08,15,05,13,18.40
2010,08,15,05,14,18.40
2010,08,15,05,15,18.40
2010,08,15,05,16,18.50
2010,08,15,05,17,18.50
2010,08,15,05,18,18.50
2010,08,15,05,19,18.50
2010,08,15,05,20,18.60
2010,08,15,05,21,18.60
2010,08,15,05,22,18.60
2010,08,15,05,23,18.60
2010,08,15,05,24,18.60
2010,08,15,05,25,18.60
2010,08,15,05,26,18.60
2010,08,15,05,27,18.60
2010,08,15,05,28,18.60
2010,08,15,05,29,18.60
2010,08,15,05,30,18.60
2010,08,15,05,31,18.60
2010,08,15,05,32,18.60
2010,08,15,05,33,18.60
2010,08,15,05,34,18.50
2010,08,15,05,35,18.50
2010,08,15,05,36,18.50
2010,08,15,05,37,18.50
2010,08,15,05,38,18.50
2010,08,15,05,39,18.50
2010,08,15,05,40,18.40
2010,08,15,05,41,18.40
2010,08,15,05,42,18.40
2010,08,15,05,43,18.40
2010,08,15,05,44,18.40
2010,08,15,05,45,18.40
2010,08,15,05,46,18.30
2010,08,15,05,47,18.30
2010,08,15,05,48,18.30
2010,08,15,05,49,18.30
2010,08,15,05,50,18.30
2010,08,15,05,51,18.30
2010,08,15,05,52,18.30
2010,08,15,05,53,18.30
2010,08,15,05,54,18.30
2010,08,15,05,55,18.30
2010,08,15,05,56,18.30
2010,08,15,05,57,18.30
2010,08,15,05,58,18.30
2010,08,15,05,59,18.30
2010,08,15,06,00,18.30
2010,08,15,06,01,18.30
2010,08,15,06,02,18.30
2010,08,15,06,03,18.30
2010,08,15,06,04,18.30
2010,08,15,06,05,18.30
2010,08,15,06,06,18.30
2010,08,15,06,07,18.30
2010,08,15,06,08,18.30
2010,08,15,06,09,18.20
2010,08,15,06,10,18.20
2010,08,15,06,11,18.20
2010,08,15,06,12,18.20
2010,08,15,06,13,18.10
2010,08,15,06,14,18.10
2010,08,15,06,15,18.00
2010,08,15,06,16,18.00
2010,08,15,06,17,17.90
2010,08,15,06,18,17.90
2010,08,15,06,19,17.80
2010,08,15,06,20,17.80
2010,08,15,06,21,17.70
2010,08,15,06,22,17.70
2010,08,15,06,23,17.60
2010,08,15,06,24,17.60
2010,08,15,06,25,17.50
2010,08,15,06,26,17.40
2010,08,15,06,27,17.40
2010,08,15,06,28,17.30
2010,08,15,06,29,17.30
2010,08,15,06,30,17.20
2010,08,15,06,31,17.20
2010,08,15,06,32,17.10
2010,08,15,06,33,17.00
2010,08,15,06,34,17.00
2010,08,15,06,35,16.90
2010,08,15,06,36,16.90
2010,08,15,06,37,16.80
2010,08,15,06,38,16.80
2010,08,15,06,39,16.80
2010,08,15,06,40,16.70
2010,08,15,06,41,16.70
2010,08,15,06,42,16.60
2010,08,15,06,43,16.60
2010,08,15,06,44,16.60
2010,08,15,06,45,16.50
2010,08,15,06,46,16.50
2010,08,15,06,47,16.40
2010,08,15,06,48,16.40
2010,08,15,06,49,16.40
2010,08,15,06,50,16.40
2010,08,15,06,51,16.30
2010,08,15,06,52,16.30
2010,08,15,06,53,16.30
2010,08,15,06,54,16.30
2010,08,15,06,55,16.30
2010,08,15,06,56,16.40
2010,08,15,06,57,16.40
2010,08,15,06,58,16.40
2010,08,15,06,59,16.40
2010,08,15,07,00,16.50
2010,08,15,07,01,16.50
2010,08,15,07,02,16.60
2010,08,15,07,03,16.60
2010,08,15,07,04,16.70
2010,08,15,07,05,16.70
2010,08,15,07,06,16.80
2010,08,15,07,07,16.90
2010,08,15,07,08,17.00
2010,08,15,07,09,17.10
2010,08,15,07,10,17.10
2010,08,15,07,11,17.20
2010,08,15,07,12,17.20
2010,08,15,07,13,17.30
2010,08,15,07,14,17.30
2010,08,15,07,15,17.30
2010,08,15,07,16,17.40
2010,08,15,07,17,17.40
2010,08,15,07,18,17.40
2010,08,15,07,19,17.50
2010,08,15,07,20,17.50
2010,08,15,07,21,17.60
2010,08,15,07,22,17.60
2010,08,15,07,23,17.70
2010,08,15,07,24,17.70
2010,08,15,07,25,17.80
2010,08,15,07,26,17.90
2010,08,15,07,27,17.90
2010,08,15,07,28,18.00
2010,08,15,07,29,18.10
2010,08,15,07,30,18.20
2010,08,15,07,31,18.30
2010,08,15,07,32,18.40
2010,08,15,07,33,18.50
2010,08,15,07,34,18.60
2010,08,15,07,35,18.60
2010,08,15,07,36,18.70
2010,08,15,07,37,18.80
2010,08,15,07,38,18.90
2010,08,15,07,39,19.10
2010,08,15,07,40,19.20
2010,08,15,07,41,19.30
2010,08,15,07,42,19.40
2010,08,15,07,43,19.50
2010,08,15,07,44,19.60
2010,08,15,07,45,19.70
2010,08,15,07,46,19.80
2010,08,15,07,47,19.90
2010,08,15,07,48,20.00
2010,08,15,07,49,20.10
2010,08,15,07,50,20.20
2010,08,15,07,51,20.30
2010,08,15,07,52,20.40
2010,08,15,07,53,20.50
2010,08,15,07,54,20.60
2010,08,15,07,55,20.70
2010,08,15,07,56,20.80
2010,08,15,07,57,20.90
2010,08,15,07,58,21.00
2010,08,15,07,59,21.10
2010,08,15,08,00,21.20
2010,08,15,08,01,21.30
2010,08,15,08,02,21.50
2010,08,15,08,03,21.60
2010,08,15,08,04,21.70
2010,08,15,08,05,21.80
2010,08,15,08,06,21.80
2010,08,15,08,07,21.90
2010,08,15,08,08,22.00
2010,08,15,08,09,22.10
2010,08,15,08,10,22.20
2010,08,15,08,11,22.20
2010,08,15,08,12,22.30
2010,08,15,08,13,22.30
2010,08,15,08,14,22.40
2010,08,15,08,15,22.40
2010,08,15,08,16,22.50
2010,08,15,08,17,22.60
2010,08,15,08,18,22.60
2010,08,15,08,19,22.70
2010,08,15,08,20,22.70
2010,08,15,08,21,22.80
2010,08,15,08,22,22.80
2010,08,15,08,23,22.90
2010,08,15,08,24,23.00
2010,08,15,08,25,23.00
2010,08,15,08,26,23.10
2010,08,15,08,27,23.20
2010,08,15,08,28,23.20
2010,08,15,08,29,23.30
2010,08,15,08,30,23.30
2010,08,15,08,31,23.30
2010,08,15,08,32,23.40
2010,08,15,08,33,23.40
2010,08,15,08,34,23.40
2010,08,15,08,35,23.50
2010,08,15,08,36,23.50
2010,08,15,08,37,23.50
2010,08,15,08,38,23.60
2010,08,15,08,39,23.60
2010,08,15,08,40,23.60
2010,08,15,08,41,23.60
2010,08,15,08,42,23.70
2010,08,15,08,43,23.70
2010,08,15,08,44,23.70
2010,08,15,08,45,23.70
2010,08,15,08,46,23.80
2010,08,15,08,47,23.80
2010,08,15,08,48,23.80
2010,08,15,08,49,23.90
2010,08,15,08,50,23.90
2010,08,15,08,51,23.90
2010,08,15,08,52,23.90
2010,08,15,08,53,23.90
2010,08,15,08,54,24.00
2010,08,15,08,55,24.00
2010,08,15,08,56,24.10
2010,08,15,08,57,24.10
2010,08,15,08,58,24.10
2010,08,15,08,59,24.20
2010,08,15,09,00,24.20
2010,08,15,09,01,24.20
2010,08,15,09,02,24.20
2010,08,15,09,03,24.20
2010,08,15,09,04,24.30
2010,08,15,09,05,24.30
2010,08,15,09,06,24.30
2010,08,15,09,07,24.40
2010,08,15,09,08,24.50
2010,08,15,09,09,24.50
2010,08,15,09,10,24.60
2010,08,15,09,11,24.70
2010,08,15,09,12,24.70
2010,08,15,09,13,24.80
2010,08,15,09,14,24.90
2010,08,15,09,15,24.90
2010,08,15,09,16,25.00
2010,08,15,09,17,25.00
2010,08,15,09,18,25.00
2010,08,15,09,19,25.00
2010,08,15,09,20,25.20
2010,08,15,09,21,25.20
2010,08,15,09,22,25.30
2010,08,15,09,23,25.30
2010,08,15,09,24,25.30
2010,08,15,09,25,25.30
2010,08,15,09,26,25.40
2010,08,15,09,27,25.40
2010,08,15,09,28,25.40
2010,08,15,09,29,25.40
2010,08,15,09,30,25.40
2010,08,15,09,31,25.50
2010,08,15,09,32,25.50
2010,08,15,09,33,25.50
2010,08,15,09,34,25.50
2010,08,15,09,35,25.60
2010,08,15,09,36,25.60
2010,08,15,09,37,25.60
2010,08,15,09,38,25.60
2010,08,15,09,39,25.70
2010,08,15,09,40,25.70
2010,08,15,09,41,25.70
2010,08,15,09,42,25.80
2010,08,15,09,43,25.80
2010,08,15,09,44,25.90
2010,08,15,09,45,25.90
2010,08,15,09,46,26.00
2010,08,15,09,47,26.10
2010,08,15,09,48,26.10
2010,08,15,09,49,26.10
2010,08,15,09,50,26.20
2010,08,15,09,51,26.20
2010,08,15,09,52,26.30
2010,08,15,09,53,26.30
2010,08,15,09,54,26.30
2010,08,15,09,55,26.40
2010,08,15,09,56,26.40
2010,08,15,09,57,26.40
2010,08,15,09,58,26.40
2010,08,15,09,59,26.40
2010,08,15,10,00,26.40
2010,08,15,10,01,26.40
2010,08,15,10,02,26.40
2010,08,15,10,03,26.40
2010,08,15,10,04,26.40
2010,08,15,10,05,26.40
2010,08,15,10,06,26.40
2010,08,15,10,07,26.40
2010,08,15,10,08,26.40
2010,08,15,10,09,26.50
2010,08,15,10,10,26.50
2010,08,15,10,11,26.50
2010,08,15,10,12,26.60
2010,08,15,10,13,26.60
2010,08,15,10,14,26.60
2010,08,15,10,15,26.50
2010,08,15,10,16,26.50
2010,08,15,10,17,26.60
2010,08,15,10,18,26.60
2010,08,15,10,19,26.60
2010,08,15,10,20,26.60
2010,08,15,10,21,26.60
2010,08,15,10,22,26.60
2010,08,15,10,23,26.70
2010,08,15,10,24,26.70
2010,08,15,10,25,26.80
2010,08,15,10,26,26.80
2010,08,15,10,27,26.90
2010,08,15,10,28,26.90
2010,08,15,10,29,26.90
2010,08,15,10,30,27.00
2010,08,15,10,31,27.00
2010,08,15,10,32,27.00
2010,08,15,10,33,27.00
2010,08,15,10,34,27.00
2010,08,15,10,35,27.00
2010,08,15,10,36,27.00
2010,08,15,10,37,27.00
2010,08,15,10,38,27.00
2010,08,15,10,39,27.00
2010,08,15,10,40,27.10
2010,08,15,10,41,27.10
2010,08,15,10,42,27.10
2010,08,15,10,43,27.10
2010,08,15,10,44,27.20
2010,08,15,10,45,27.20
2010,08,15,10,46,27.30
2010,08,15,10,47,27.30
2010,08,15,10,48,27.40
2010,08,15,10,49,27.40
2010,08,15,10,50,27.50
2010,08,15,10,51,27.50
2010,08,15,10,52,27.60
2010,08,15,10,53,27.60
2010,08,15,10,54,27.60
2010,08,15,10,55,27.70
2010,08,15,10,56,27.70
2010,08,15,10,57,27.70
2010,08,15,10,58,27.80
2010,08,15,10,59,27.80
2010,08,15,11,00,27.90
2010,08,15,11,01,27.90
2010,08,15,11,02,28.00
2010,08,15,11,03,28.10
2010,08,15,11,04,28.10
2010,08,15,11,05,28.20
2010,08,15,11,06,28.20
2010,08,15,11,07,28.30
2010,08,15,11,08,28.30
2010,08,15,11,09,28.40
2010,08,15,11,10,28.40
2010,08,15,11,11,28.50
2010,08,15,11,12,28.50
2010,08,15,11,13,28.60
2010,08,15,11,14,28.60
2010,08,15,11,15,28.70
2010,08,15,11,16,28.80
2010,08,15,11,17,28.90
2010,08,15,11,18,29.00
2010,08,15,11,19,29.10
2010,08,15,11,20,29.20
2010,08,15,11,21,29.30
2010,08,15,11,22,29.30
2010,08,15,11,23,29.40
2010,08,15,11,24,29.40
2010,08,15,11,25,29.50
2010,08,15,11,26,29.50
2010,08,15,11,27,29.60
2010,08,15,11,28,29.60
2010,08,15,11,29,29.70
2010,08,15,11,30,29.70
2010,08,15,11,31,29.70
2010,08,15,11,32,29.80
2010,08,15,11,33,29.80
2010,08,15,11,34,29.90
2010,08,15,11,35,29.90
2010,08,15,11,36,29.90
2010,08,15,11,37,30.00
2010,08,15,11,38,30.00
2010,08,15,11,39,30.00
2010,08,15,11,40,30.00
2010,08,15,11,41,30.10
2010,08,15,11,42,30.10
2010,08,15,11,43,30.10
2010,08,15,11,44,30.10
2010,08,15,11,45,30.10
2010,08,15,11,46,30.10
2010,08,15,11,47,30.10
2010,08,15,11,48,30.10
2010,08,15,11,49,30.10
2010,08,15,11,50,30.10
2010,08,15,11,51,30.10
2010,08,15,11,52,30.10
2010,08,15,11,53,30.20
2010,08,15,11,54,30.20
2010,08,15,11,55,30.20
2010,08,15,11,56,30.30
2010,08,15,11,57,30.30
2010,08,15,11,58,30.30
2010,08,15,11,59,30.40
2010,08,15,12,00,30.40
2010,08,15,12,01,30.50
2010,08,15,12,02,30.60
2010,08,15,12,03,30.60
2010,08,15,12,04,30.60
2010,08,15,12,05,30.70
2010,08,15,12,06,30.70
2010,08,15,12,07,30.80
2010,08,15,12,08,30.80
2010,08,15,12,09,30.80
2010,08,15,12,10,30.90
2010,08,15,12,11,30.90
2010,08,15,12,12,31.00
2010,08,15,12,13,31.00
2010,08,15,12,14,31.00
2010,08,15,12,15,31.00
2010,08,15,12,16,31.00
2010,08,15,12,17,31.10
2010,08,15,12,18,31.10
2010,08,15,12,19,31.10
2010,08,15,12,20,31.10
2010,08,15,12,21,31.10
2010,08,15,12,22,31.10
2010,08,15,12,23,31.10
2010,08,15,12,24,31.10
2010,08,15,12,25,31.10
2010,08,15,12,26,31.10
2010,08,15,12,27,31.20
2010,08,15,12,28,31.20
2010,08,15,12,29,31.20
2010,08,15,12,30,31.20
2010,08,15,12,31,31.20
2010,08,15,12,32,31.20
2010,08,15,12,33,31.20
2010,08,15,12,34,31.20
2010,08,15,12,35,31.20
2010,08,15,12,36,31.30
2010,08,15,12,37,31.30
2010,08,15,12,38,31.30
2010,08,15,12,39,31.40
2010,08,15,12,40,31.40
2010,08,15,12,41,31.40
2010,08,15,12,42,31.40
2010,08,15,12,43,31.50
2010,08,15,12,44,31.50
2010,08,15,12,45,31.60
2010,08,15,12,46,31.60
2010,08,15,12,47,31.70
2010,08,15,12,48,31.70
2010,08,15,12,49,31.80
2010,08,15,12,50,31.80
2010,08,15,12,51,31.90
2010,08,15,12,52,31.90
2010,08,15,12,53,32.00
2010,08,15,12,54,32.00
2010,08,15,12,55,32.00
2010,08,15,12,56,32.00
2010,08,15,12,57,32.00
2010,08,15,12,58,32.10
2010,08,15,12,59,32.10
2010,08,15,13,00,32.10
2010,08,15,13,01,32.10
2010,08,15,13,02,32.10
2010,08,15,13,03,32.10
2010,08,15,13,04,32.10
2010,08,15,13,05,32.10
2010,08,15,13,06,32.10
2010,08,15,13,07,32.10
2010,08,15,13,08,32.10
2010,08,15,13,09,32.10
2010,08,15,13,10,32.10
2010,08,15,13,11,32.10
2010,08,15,13,12,32.10
2010,08,15,13,13,32.10
2010,08,15,13,14,32.20
2010,08,15,13,15,32.20
2010,08,15,13,16,32.20
2010,08,15,13,17,32.20
2010,08,15,13,18,32.30
2010,08,15,13,19,32.30
2010,08,15,13,20,32.30
2010,08,15,13,21,32.30
2010,08,15,13,22,32.30
2010,08,15,13,23,32.40
2010,08,15,13,24,32.40
2010,08,15,13,25,32.40
2010,08,15,13,26,32.50
2010,08,15,13,27,32.50
2010,08,15,13,28,32.60
2010,08,15,13,29,32.60
2010,08,15,13,30,32.60
2010,08,15,13,31,32.60
2010,08,15,13,32,32.70
2010,08,15,13,33,32.70
2010,08,15,13,34,32.70
2010,08,15,13,35,32.80
2010,08,15,13,36,32.80
2010,08,15,13,37,32.80
2010,08,15,13,38,32.80
2010,08,15,13,39,32.90
2010,08,15,13,40,32.90
2010,08,15,13,41,32.90
2010,08,15,13,42,33.00
2010,08,15,13,43,33.10
2010,08,15,13,44,33.10
2010,08,15,13,45,33.10
2010,08,15,13,46,33.10
2010,08,15,13,47,33.10
2010,08,15,13,48,33.20
2010,08,15,13,49,33.20
2010,08,15,13,50,33.30
2010,08,15,13,51,33.30
2010,08,15,13,52,33.30
2010,08,15,13,53,33.40
2010,08,15,13,54,33.40
2010,08,15,13,55,33.40
2010,08,15,13,56,33.40
2010,08,15,13,57,33.40
2010,08,15,13,58,33.50
2010,08,15,13,59,33.50
2010,08,15,14,00,33.60
2010,08,15,14,01,33.50
2010,08,15,14,02,33.60
2010,08,15,14,03,33.60
2010,08,15,14,04,33.60
2010,08,15,14,05,33.60
2010,08,15,14,06,33.60
2010,08,15,14,07,33.40
2010,08,15,14,08,33.30
2010,08,15,14,09,33.10
2010,08,15,14,10,32.90
2010,08,15,14,11,32.70
2010,08,15,14,12,32.50
2010,08,15,14,13,32.30
2010,08,15,14,14,32.10
2010,08,15,14,15,32.00
2010,08,15,14,16,31.90
2010,08,15,14,17,31.80
2010,08,15,14,18,31.70
2010,08,15,14,19,31.60
2010,08,15,14,20,31.40
2010,08,15,14,21,31.30
2010,08,15,14,22,31.20
2010,08,15,14,23,31.10
2010,08,15,14,24,30.90
2010,08,15,14,25,30.80
2010,08,15,14,26,30.60
2010,08,15,14,27,30.50
2010,08,15,14,28,30.30
2010,08,15,14,29,30.10
2010,08,15,14,30,29.90
2010,08,15,14,31,29.70
2010,08,15,14,32,29.50
2010,08,15,14,33,29.30
2010,08,15,14,34,29.00
2010,08,15,14,35,28.80
2010,08,15,14,36,28.60
2010,08,15,14,37,28.40
2010,08,15,14,38,28.20
2010,08,15,14,39,28.00
2010,08,15,14,40,27.90
2010,08,15,14,41,27.70
2010,08,15,14,42,27.60
2010,08,15,14,43,27.50
2010,08,15,14,44,27.40
2010,08,15,14,45,27.30
2010,08,15,14,46,27.20
2010,08,15,14,47,27.10
2010,08,15,14,48,27.00
2010,08,15,14,49,26.90
2010,08,15,14,50,26.80
2010,08,15,14,51,26.70
2010,08,15,14,52,26.60
2010,08,15,14,53,26.60
2010,08,15,14,54,26.50
2010,08,15,14,55,26.40
2010,08,15,14,56,26.40
2010,08,15,14,57,26.40
2010,08,15,14,58,26.40
2010,08,15,14,59,26.40
2010,08,15,15,00,26.40
2010,08,15,15,01,26.40
2010,08,15,15,02,26.40
2010,08,15,15,03,26.30
2010,08,15,15,04,26.30
2010,08,15,15,05,26.20
2010,08,15,15,06,26.10
2010,08,15,15,07,26.10
2010,08,15,15,08,26.00
2010,08,15,15,09,26.00
2010,08,15,15,10,26.00
2010,08,15,15,11,25.90
2010,08,15,15,12,25.90
2010,08,15,15,13,25.90
2010,08,15,15,14,25.90
2010,08,15,15,15,25.80
2010,08,15,15,16,25.80
2010,08,15,15,17,25.80
2010,08,15,15,18,25.80
2010,08,15,15,19,25.80
2010,08,15,15,20,25.80
2010,08,15,15,21,25.90
2010,08,15,15,22,25.90
2010,08,15,15,23,26.00
2010,08,15,15,24,26.00
2010,08,15,15,25,26.10
2010,08,15,15,26,26.20
2010,08,15,15,27,26.20
2010,08,15,15,28,26.30
2010,08,15,15,29,26.30
2010,08,15,15,30,26.40
2010,08,15,15,31,26.50
2010,08,15,15,32,26.60
2010,08,15,15,33,26.60
2010,08,15,15,34,26.70
2010,08,15,15,35,26.80
2010,08,15,15,36,26.80
2010,08,15,15,37,26.90
2010,08,15,15,38,26.90
2010,08,15,15,39,27.00
2010,08,15,15,40,27.00
2010,08,15,15,41,27.10
2010,08,15,15,42,27.10
2010,08,15,15,43,27.20
2010,08,15,15,44,27.20
2010,08,15,15,45,27.20
2010,08,15,15,46,27.30
2010,08,15,15,47,27.30
2010,08,15,15,48,27.30
2010,08,15,15,49,27.30
2010,08,15,15,50,27.30
2010,08,15,15,51,27.30
2010,08,15,15,52,27.30
2010,08,15,15,53,27.30
2010,08,15,15,54,27.30
2010,08,15,15,55,27.20
2010,08,15,15,56,27.20
2010,08,15,15,57,27.20
2010,08,15,15,58,27.20
2010,08,15,15,59,27.20
2010,08,15,16,00,27.10
2010,08,15,16,01,27.10
2010,08,15,16,02,27.10
2010,08,15,16,03,27.10
2010,08,15,16,04,27.00
2010,08,15,16,05,27.00
2010,08,15,16,06,27.00
2010,08,15,16,07,27.10
2010,08,15,16,08,27.10
2010,08,15,16,09,27.20
2010,08,15,16,10,27.20
2010,08,15,16,11,27.30
2010,08,15,16,12,27.30
2010,08,15,16,13,27.30
2010,08,15,16,14,27.30
2010,08,15,16,15,27.30
2010,08,15,16,16,27.30
2010,08,15,16,17,27.40
2010,08,15,16,18,27.40
2010,08,15,16,19,27.40
2010,08,15,16,20,27.40
2010,08,15,16,21,27.30
2010,08,15,16,22,27.30
2010,08,15,16,23,27.30
2010,08,15,16,24,27.20
2010,08,15,16,25,27.20
2010,08,15,16,26,27.10
2010,08,15,16,27,27.10
2010,08,15,16,28,27.00
2010,08,15,16,29,26.90
2010,08,15,16,30,26.80
2010,08,15,16,31,26.70
2010,08,15,16,32,26.50
2010,08,15,16,33,26.40
2010,08,15,16,34,26.30
2010,08,15,16,35,26.20
2010,08,15,16,36,26.00
2010,08,15,16,37,25.80
2010,08,15,16,38,25.70
2010,08,15,16,39,25.60
2010,08,15,16,40,25.50
2010,08,15,16,41,25.40
2010,08,15,16,42,25.40
2010,08,15,16,43,25.40
2010,08,15,16,44,25.40
2010,08,15,16,45,25.40
2010,08,15,16,46,25.40
2010,08,15,16,47,25.40
2010,08,15,16,48,25.50
2010,08,15,16,49,25.50
2010,08,15,16,50,25.60
2010,08,15,16,51,25.70
2010,08,15,16,52,25.70
2010,08,15,16,53,25.70
2010,08,15,16,54,25.80
2010,08,15,16,55,25.80
2010,08,15,16,56,25.80
2010,08,15,16,57,25.90
2010,08,15,16,58,25.90
2010,08,15,16,59,26.00
2010,08,15,17,00,26.00
2010,08,15,17,01,26.10
2010,08,15,17,02,26.20
2010,08,15,17,03,26.30
2010,08,15,17,04,26.40
2010,08,15,17,05,26.50
2010,08,15,17,06,26.60
2010,08,15,17,07,26.70
2010,08,15,17,08,26.80
2010,08,15,17,09,26.90
2010,08,15,17,10,27.00
2010,08,15,17,11,27.00
2010,08,15,17,12,27.10
2010,08,15,17,13,27.10
2010,08,15,17,14,27.10
2010,08,15,17,15,27.10
2010,08,15,17,16,27.10
2010,08,15,17,17,27.10
2010,08,15,17,18,27.20
2010,08,15,17,19,27.20